Weather in Ponizov'ye

Russia / Smolensk Oblast     55°16′44″N   31°05′11″E
temp.,
°C
wind,
m/s
gust,
m/s
humid.,
%
clouds,
%
prec.,
mm/h
press.,
hPa
HPBL,
m
24 june, thu
thu2400:00+22sse22821 0.0 101911
03:00+21sse3385100 0.0 101941
06:00+22s378879 0.1 1018138
09:00+26wsw4780100 1.6 1019324
12:00+30sse3456100 0.1 10181004
15:00+30s345899 0.1 10181325
18:00+29s46675 0.0 1016519
21:00+25sw33805 0.0 101637
25 june, fri
fri2500:00+23s22866 0.4 101612
03:00+21s34895 1.1 101645
06:00+21sse349021 0.3 101592
09:00+26ssw35745 0.3 1015429
12:00+29s57621 0.5 10151016
15:00+30ssw67578 0.9 10141675
18:00+29s48640 0.0 1011819
21:00+22ssw81288100 3.9 1012263
26 june, sat
sat2600:00+21s228489 7.3 101223
03:00+18s41095100 12.4 1014242
06:00+19s139585 0.9 101288
09:00+23sw34826 0.9 1014461
12:00+27wsw456431 0.0 1013969
15:00+28wsw3456100 0.0 10131322
18:00+27w23675 0.0 10121149
21:00+23w348787 0.1 101262
27 june, sun
sun2700:00+20w2494100 4.0 101382
03:00+19nw239782 4.4 101356
06:00+18nw2599100 2.6 1013215
09:00+21nw338841 2.6 1014432
12:00+23wnw3374100 0.0 1014690
15:00+22w3481100 0.0 1014334
18:00+20w3584100 0.2 1013139
21:00+20w338613 0.2 101457
28 june, mon
mon2800:00+17wnw41187100 0.0 1014262
03:00+15nw389498 0.0 1015161
06:00+15nw3793100 0.0 1014197
09:00+18nw4682100 0.0 1015359
12:00+20nnw4677100 0.0 1015626
15:00+23nnw3560100 0.0 10141132
18:00+24nw3564100 0.0 10141264
21:00+19n227961 0.0 101423